When you browse on this site, cookies collect data to enhance your experience and personalize the content and advertising you see.
Visit our Privacy Policy to learn more. By continuing to use the site, you agree to this use of cookies and data.

Hourly Weather Jewłach

Today, 7 July, Tuesday

Time Temperature Precipitation Wind Pressure Humidity
00:00 +29°C° 0 mm 3 mps 755 mmHg 29%
01:00 +28°C° 0 mm 3 mps 755 mmHg 31%
02:00 +28°C° 0 mm 3 mps 755 mmHg 33%
03:00 +27°C° 0 mm 2 mps 755 mmHg 36%
04:00 +28°C° 0 mm 2 mps 755 mmHg 35%
05:00 +28°C° 0 mm 2 mps 755 mmHg 35%
06:00 +29°C° 0 mm 2 mps 755 mmHg 35%
07:00 +31°C° 0 mm 2 mps 755 mmHg 30%
08:00 +35°C° 0 mm 3 mps 755 mmHg 25%
09:00 +38°C° 0 mm 4 mps 755 mmHg 20%
10:00 +40°C° 0 mm 4 mps 754 mmHg 18%
11:00 +41°C° 0 mm 5 mps 754 mmHg 16%
12:00 +44°C° 0 mm 6 mps 754 mmHg 14%
13:00 +44°C° 0 mm 6 mps 754 mmHg 13%
14:00 +44°C° 0 mm 6 mps 753 mmHg 13%
15:00 +43°C° 0 mm 5 mps 753 mmHg 13%
16:00 +43°C° 0 mm 5 mps 753 mmHg 13%
17:00 +42°C° 0 mm 5 mps 753 mmHg 13%
18:00 +42°C° 0 mm 5 mps 753 mmHg 14%
19:00 +39°C° 0 mm 5 mps 754 mmHg 18%
20:00 +36°C° 0 mm 5 mps 754 mmHg 22%
21:00 +33°C° 0 mm 5 mps 754 mmHg 26%
22:00 +32°C° 0 mm 4 mps 754 mmHg 28%
23:00 +30°C° 0 mm 4 mps 754 mmHg 30%

Tomorrow, 8 July, Wednesday

Time Temperature Precipitation Wind Pressure Humidity
00:00 +28°C° 0 mm 3 mps 754 mmHg 32%
01:00 +28°C° 0 mm 3 mps 754 mmHg 34%
02:00 +27°C° 0 mm 2 mps 754 mmHg 35%
03:00 +27°C° 0 mm 2 mps 754 mmHg 36%
04:00 +27°C° 0 mm 2 mps 755 mmHg 36%
05:00 +28°C° 0 mm 1 mps 755 mmHg 36%
06:00 +29°C° 0 mm 1 mps 755 mmHg 35%
07:00 +31°C° 0 mm 1 mps 754 mmHg 31%
08:00 +33°C° 0 mm 1 mps 754 mmHg 27%
09:00 +36°C° 0 mm 2 mps 754 mmHg 24%
10:00 +37°C° 0 mm 2 mps 754 mmHg 21%
11:00 +39°C° 0 mm 2 mps 753 mmHg 19%
12:00 +40°C° 0 mm 3 mps 753 mmHg 17%
13:00 +42°C° 0 mm 3 mps 752 mmHg 17%
14:00 +43°C° 0 mm 3 mps 752 mmHg 16%
15:00 +44°C° 0 mm 3 mps 751 mmHg 16%
16:00 +43°C° 0 mm 3 mps 751 mmHg 17%
17:00 +43°C° 0 mm 4 mps 751 mmHg 18%
18:00 +43°C° 0 mm 4 mps 751 mmHg 19%
19:00 +40°C° 0 mm 4 mps 752 mmHg 22%
20:00 +36°C° 0 mm 4 mps 753 mmHg 26%
21:00 +34°C° 0 mm 4 mps 753 mmHg 30%
22:00 +33°C° 0 mm 3 mps 753 mmHg 32%
23:00 +31°C° 0 mm 2 mps 754 mmHg 33%

Day after tomorrow, 9 July, Thursday

Time Temperature Precipitation Wind Pressure Humidity
00:00 +30°C° 0 mm 1 mps 754 mmHg 35%
01:00 +29°C° 0.1 mm 1 mps 754 mmHg 38%
02:00 +29°C° 0.1 mm 1 mps 754 mmHg 41%
03:00 +28°C° 0.1 mm 1 mps 754 mmHg 43%
04:00 +29°C° 0 mm 3 mps 754 mmHg 45%
05:00 +29°C° 0 mm 4 mps 754 mmHg 46%
06:00 +30°C° 0 mm 5 mps 755 mmHg 47%
07:00 +33°C° 0 mm 5 mps 755 mmHg 43%
08:00 +35°C° 0 mm 6 mps 755 mmHg 39%
09:00 +36°C° 0 mm 6 mps 755 mmHg 35%
10:00 +39°C° 0 mm 5 mps 755 mmHg 32%
11:00 +40°C° 0 mm 4 mps 754 mmHg 29%
12:00 +40°C° 0 mm 3 mps 754 mmHg 26%
13:00 +42°C° 0 mm 3 mps 754 mmHg 24%
14:00 +43°C° 0 mm 3 mps 754 mmHg 23%
15:00 +42°C° 0 mm 2 mps 753 mmHg 22%
16:00 +43°C° 0 mm 3 mps 753 mmHg 22%
17:00 +42°C° 0 mm 3 mps 754 mmHg 23%
18:00 +42°C° 0 mm 4 mps 754 mmHg 23%
19:00 +40°C° 0 mm 4 mps 755 mmHg 28%
20:00 +37°C° 0 mm 4 mps 755 mmHg 33%
21:00 +34°C° 0 mm 5 mps 756 mmHg 37%
22:00 +33°C° 0 mm 4 mps 756 mmHg 40%
23:00 +31°C° 0 mm 3 mps 757 mmHg 44%

10 July, Friday

Time Temperature Precipitation Wind Pressure Humidity
00:00 +30°C° 0 mm 2 mps 757 mmHg 47%
01:00 +29°C° 0.1 mm 2 mps 757 mmHg 51%
02:00 +29°C° 0.1 mm 2 mps 757 mmHg 55%
03:00 +28°C° 0.1 mm 2 mps 757 mmHg 59%
04:00 +28°C° 0.1 mm 2 mps 757 mmHg 59%
05:00 +28°C° 0.1 mm 3 mps 758 mmHg 58%
06:00 +29°C° 0.1 mm 3 mps 758 mmHg 58%
07:00 +30°C° 0.1 mm 3 mps 758 mmHg 53%
08:00 +32°C° 0.1 mm 2 mps 758 mmHg 48%
09:00 +34°C° 0.1 mm 2 mps 758 mmHg 43%
10:00 +36°C° 0 mm 2 mps 758 mmHg 39%
11:00 +37°C° 0 mm 2 mps 758 mmHg 34%
12:00 +39°C° 0 mm 3 mps 758 mmHg 29%
13:00 +39°C° 0 mm 3 mps 757 mmHg 28%
14:00 +40°C° 0 mm 3 mps 757 mmHg 27%
15:00 +41°C° 0 mm 4 mps 756 mmHg 26%
16:00 +41°C° 0 mm 4 mps 757 mmHg 27%
17:00 +41°C° 0 mm 5 mps 757 mmHg 28%
18:00 +40°C° 0 mm 6 mps 757 mmHg 28%
19:00 +38°C° 0.2 mm 6 mps 757 mmHg 36%
20:00 +34°C° 0.2 mm 7 mps 758 mmHg 44%
21:00 +32°C° 0.2 mm 8 mps 759 mmHg 51%
22:00 +30°C° 0.6 mm 7 mps 759 mmHg 55%
23:00 +29°C° 0.6 mm 6 mps 759 mmHg 59%

11 July, Saturday

Time Temperature Precipitation Wind Pressure Humidity
00:00 +28°C° 0.6 mm 5 mps 759 mmHg 63%
01:00 +28°C° 0.2 mm 4 mps 759 mmHg 63%
02:00 +28°C° 0.2 mm 4 mps 759 mmHg 63%
03:00 +28°C° 0.2 mm 3 mps 759 mmHg 64%
04:00 +28°C° 0.1 mm 2 mps 759 mmHg 63%
05:00 +28°C° 0.1 mm 2 mps 759 mmHg 62%
06:00 +28°C° 0.1 mm 1 mps 759 mmHg 62%
07:00 +30°C° 0.3 mm 1 mps 759 mmHg 57%
08:00 +31°C° 0.3 mm 1 mps 759 mmHg 52%
09:00 +32°C° 0.3 mm 1 mps 759 mmHg 47%
10:00 +34°C° 0 mm 2 mps 759 mmHg 42%
11:00 +36°C° 0 mm 2 mps 758 mmHg 38%
12:00 +37°C° 0 mm 3 mps 758 mmHg 33%
13:00 +38°C° 0 mm 3 mps 758 mmHg 31%
14:00 +39°C° 0 mm 3 mps 757 mmHg 30%
15:00 +40°C° 0 mm 4 mps 757 mmHg 28%
16:00 +40°C° 0 mm 4 mps 757 mmHg 30%
17:00 +39°C° 0 mm 5 mps 757 mmHg 31%
18:00 +38°C° 0 mm 6 mps 757 mmHg 33%
19:00 +36°C° 0.1 mm 6 mps 757 mmHg 36%
20:00 +34°C° 0.1 mm 6 mps 757 mmHg 39%
21:00 +33°C° 0.1 mm 6 mps 758 mmHg 42%
22:00 +32°C° 0.3 mm 5 mps 758 mmHg 44%
23:00 +30°C° 0.3 mm 4 mps 757 mmHg 45%

12 July, Sunday

Time Temperature Precipitation Wind Pressure Humidity
00:00 +30°C° 0.3 mm 4 mps 757 mmHg 47%
01:00 +29°C° 0.3 mm 3 mps 757 mmHg 49%
02:00 +28°C° 0.3 mm 3 mps 757 mmHg 52%
03:00 +28°C° 0.3 mm 3 mps 757 mmHg 54%
04:00 +28°C° 0.5 mm 3 mps 757 mmHg 56%
05:00 +28°C° 0.5 mm 3 mps 757 mmHg 57%
06:00 +28°C° 0.5 mm 3 mps 757 mmHg 58%
07:00 +29°C° 0.2 mm 3 mps 757 mmHg 54%
08:00 +30°C° 0.2 mm 3 mps 757 mmHg 49%
09:00 +31°C° 0.2 mm 2 mps 757 mmHg 44%
10:00 +32°C° 0 mm 2 mps 757 mmHg 40%
11:00 +35°C° 0 mm 3 mps 756 mmHg 36%
12:00 +36°C° 0 mm 3 mps 756 mmHg 33%
13:00 +37°C° 0 mm 3 mps 756 mmHg 31%
14:00 +38°C° 0 mm 2 mps 755 mmHg 29%
15:00 +39°C° 0 mm 2 mps 755 mmHg 28%
16:00 +38°C° 0 mm 2 mps 754 mmHg 28%
17:00 +38°C° 0 mm 2 mps 754 mmHg 29%
18:00 +38°C° 0 mm 2 mps 754 mmHg 29%
19:00 +36°C° 0 mm 3 mps 755 mmHg 33%
20:00 +35°C° 0 mm 4 mps 755 mmHg 36%
21:00 +34°C° 0 mm 4 mps 755 mmHg 40%
22:00 +33°C° 0 mm 4 mps 755 mmHg 43%
23:00 +30°C° 0 mm 4 mps 755 mmHg 47%
Show more